Time,TemperatureF,DewpointF,PressureIn,WindDirection,WindDirectionDegrees,WindSpeedMPH,WindSpeedGustMPH,Humidity,HourlyPrecipIn,Conditions,Clouds,dailyrainin,SoftwareType,DateUTC
2013-03-22 00:03:00,24.0,13.0,30.00,NW,325,0.0,0.0,63,0.00,,,0.00,,2013-03-22 04:03:00,
2013-03-22 00:12:00,24.0,13.0,30.00,NW,325,0.0,0.0,63,0.00,,,0.00,,2013-03-22 04:12:00,
2013-03-22 00:23:00,24.0,14.0,30.00,NW,325,0.0,0.0,65,0.00,,,0.00,,2013-03-22 04:23:00,
2013-03-22 00:32:00,24.0,14.0,30.01,NW,325,0.0,0.0,66,0.00,,,0.00,,2013-03-22 04:32:00,
2013-03-22 00:43:00,24.0,14.0,30.01,NW,325,0.0,0.0,66,0.00,,,0.00,,2013-03-22 04:43:00,
2013-03-22 00:52:00,24.0,15.0,30.00,NW,325,0.0,0.0,67,0.00,,,0.00,,2013-03-22 04:52:00,
2013-03-22 01:02:00,24.0,14.0,30.00,NW,325,0.0,0.0,66,0.00,,,0.00,,2013-03-22 05:02:00,
2013-03-22 01:12:00,24.0,14.0,30.00,NW,325,0.0,0.0,66,0.00,,,0.00,,2013-03-22 05:12:00,
2013-03-22 01:22:00,24.0,14.0,30.00,NW,325,0.0,0.0,66,0.00,,,0.00,,2013-03-22 05:22:00,
2013-03-22 01:32:00,23.0,13.0,30.00,NW,325,0.0,0.0,66,0.00,,,0.00,,2013-03-22 05:32:00,
2013-03-22 01:42:00,23.0,13.0,30.00,NW,325,0.0,0.0,66,0.00,,,0.00,,2013-03-22 05:42:00,
2013-03-22 01:52:00,23.0,14.0,30.00,NW,325,1.0,2.0,67,0.00,,,0.00,,2013-03-22 05:52:00,
2013-03-22 02:02:00,23.0,14.0,30.00,NW,325,0.0,1.0,67,0.00,,,0.00,,2013-03-22 06:02:00,
2013-03-22 02:13:00,23.0,14.0,30.00,NW,325,0.0,1.0,67,0.00,,,0.00,,2013-03-22 06:13:00,
2013-03-22 02:22:00,23.0,14.0,30.00,NW,325,1.0,2.0,68,0.00,,,0.00,,2013-03-22 06:22:00,
2013-03-22 02:32:00,23.0,14.0,29.99,NW,325,0.0,0.0,69,0.00,,,0.00,,2013-03-22 06:32:00,
2013-03-22 02:42:00,23.0,14.0,29.99,NW,325,0.0,0.0,69,0.00,,,0.00,,2013-03-22 06:42:00,
2013-03-22 02:52:00,23.0,14.0,30.00,NW,325,1.0,2.0,69,0.00,,,0.00,,2013-03-22 06:52:00,
2013-03-22 03:03:00,23.0,14.0,29.99,NW,325,1.0,2.0,69,0.00,,,0.00,,2013-03-22 07:03:00,
2013-03-22 03:12:00,23.0,14.0,29.99,NW,325,1.0,2.0,69,0.00,,,0.00,,2013-03-22 07:12:00,
2013-03-22 03:22:00,23.0,14.0,29.99,NW,325,0.0,2.0,69,0.00,,,0.00,,2013-03-22 07:22:00,
2013-03-22 03:32:00,22.0,13.0,29.99,NW,325,0.0,0.0,69,0.00,,,0.00,,2013-03-22 07:32:00,
2013-03-22 03:42:00,22.0,13.0,29.99,NW,325,0.0,0.0,69,0.00,,,0.00,,2013-03-22 07:42:00,
2013-03-22 03:52:00,22.0,13.0,29.99,NW,325,0.0,0.0,69,0.00,,,0.00,,2013-03-22 07:52:00,
2013-03-22 04:03:00,22.0,14.0,30.00,NW,325,0.0,0.0,71,0.00,,,0.00,,2013-03-22 08:03:00,
2013-03-22 04:13:00,22.0,14.0,30.00,NW,325,0.0,0.0,71,0.00,,,0.00,,2013-03-22 08:13:00,
2013-03-22 04:22:00,22.0,14.0,29.99,NW,325,1.0,2.0,70,0.00,,,0.00,,2013-03-22 08:22:00,
2013-03-22 04:32:00,21.0,13.0,30.00,NW,325,0.0,0.0,71,0.00,,,0.00,,2013-03-22 08:32:00,
2013-03-22 04:42:00,21.0,13.0,30.00,NW,325,0.0,0.0,71,0.00,,,0.00,,2013-03-22 08:42:00,
2013-03-22 04:52:00,21.0,13.0,30.00,NW,325,0.0,1.0,71,0.00,,,0.00,,2013-03-22 08:52:00,
2013-03-22 05:02:00,21.0,13.0,29.99,NW,325,0.0,2.0,71,0.00,,,0.00,,2013-03-22 09:02:00,
2013-03-22 05:12:00,21.0,13.0,29.99,NW,325,0.0,2.0,71,0.00,,,0.00,,2013-03-22 09:12:00,
2013-03-22 05:22:00,21.0,13.0,29.99,NW,325,0.0,0.0,72,0.00,,,0.00,,2013-03-22 09:22:00,
2013-03-22 05:32:00,21.0,13.0,30.00,NW,325,0.0,0.0,72,0.00,,,0.00,,2013-03-22 09:32:00,
2013-03-22 05:42:00,21.0,13.0,30.00,NW,325,0.0,0.0,72,0.00,,,0.00,,2013-03-22 09:42:00,
2013-03-22 05:53:00,21.0,13.0,30.00,NW,325,0.0,0.0,72,0.00,,,0.00,,2013-03-22 09:53:00,
2013-03-22 06:04:00,21.0,13.0,30.00,NW,325,0.0,0.0,72,0.00,,,0.00,,2013-03-22 10:04:00,
2013-03-22 06:12:00,21.0,13.0,30.00,NW,325,0.0,0.0,72,0.00,,,0.00,,2013-03-22 10:12:00,
2013-03-22 06:22:00,21.0,13.0,30.00,NW,325,0.0,0.0,72,0.00,,,0.00,,2013-03-22 10:22:00,
2013-03-22 06:33:00,21.0,14.0,30.00,NW,325,0.0,0.0,73,0.00,,,0.00,,2013-03-22 10:33:00,
2013-03-22 06:42:00,21.0,14.0,30.00,NW,325,0.0,0.0,73,0.00,,,0.00,,2013-03-22 10:42:00,
2013-03-22 06:52:00,21.0,13.0,30.01,NW,325,0.0,0.0,72,0.00,,,0.00,,2013-03-22 10:52:00,
2013-03-22 07:03:00,21.0,14.0,30.02,NW,325,0.0,0.0,73,0.00,,,0.00,,2013-03-22 11:03:00,
2013-03-22 07:12:00,21.0,14.0,30.02,NW,325,0.0,0.0,73,0.00,,,0.00,,2013-03-22 11:12:00,
2013-03-22 07:22:00,21.0,14.0,30.02,NW,325,0.0,0.0,74,0.00,,,0.00,,2013-03-22 11:22:00,
2013-03-22 07:33:00,20.0,13.0,30.02,NW,325,0.0,0.0,74,0.00,,,0.00,,2013-03-22 11:33:00,
2013-03-22 07:42:00,20.0,13.0,30.02,NW,325,0.0,0.0,74,0.00,,,0.00,,2013-03-22 11:42:00,
2013-03-22 07:52:00,20.0,13.0,30.02,NW,325,0.0,0.0,75,0.00,,,0.00,,2013-03-22 11:52:00,
2013-03-22 08:02:00,20.0,14.0,30.02,NW,325,0.0,1.0,76,0.00,,,0.00,,2013-03-22 12:02:00,
2013-03-22 08:12:00,20.0,14.0,30.03,NW,325,1.0,2.0,76,0.00,,,0.00,,2013-03-22 12:12:00,
2013-03-22 08:22:00,20.0,14.0,30.03,NW,325,1.0,2.0,76,0.00,,,0.00,,2013-03-22 12:22:00,
2013-03-22 08:32:00,22.0,16.0,30.03,NW,325,2.0,3.0,77,0.00,,,0.00,,2013-03-22 12:32:00,
2013-03-22 08:42:00,22.0,16.0,30.03,NW,325,2.0,3.0,77,0.00,,,0.00,,2013-03-22 12:42:00,
2013-03-22 08:52:00,24.0,17.0,30.04,NW,325,1.0,3.0,75,0.00,,,0.00,,2013-03-22 12:52:00,
2013-03-22 09:02:00,27.0,18.0,30.04,NW,325,1.0,4.0,69,0.00,,,0.00,,2013-03-22 13:02:00,
2013-03-22 09:12:00,27.0,18.0,30.04,NW,325,1.0,4.0,69,0.00,,,0.00,,2013-03-22 13:12:00,
2013-03-22 09:22:00,28.0,18.0,30.04,NW,324,2.0,5.0,67,0.00,,,0.00,,2013-03-22 13:22:00,
2013-03-22 09:32:00,29.0,19.0,30.03,NW,323,2.0,5.0,66,0.00,,,0.00,,2013-03-22 13:32:00,
2013-03-22 09:42:00,29.0,19.0,30.03,NW,323,2.0,5.0,66,0.00,,,0.00,,2013-03-22 13:42:00,
2013-03-22 09:52:00,31.0,20.0,30.04,NW,323,2.0,5.0,64,0.00,,,0.00,,2013-03-22 13:52:00,
2013-03-22 10:03:00,33.0,21.0,30.04,NW,322,2.0,5.0,60,0.00,,,0.00,,2013-03-22 14:03:00,
2013-03-22 10:12:00,33.0,21.0,30.04,NW,322,2.0,5.0,60,0.00,,,0.00,,2013-03-22 14:12:00,
2013-03-22 10:22:00,33.0,20.0,30.04,NW,319,2.0,5.0,59,0.00,,,0.00,,2013-03-22 14:22:00,
2013-03-22 10:32:00,34.0,21.0,30.04,WNW,296,3.0,7.0,58,0.00,,,0.00,,2013-03-22 14:32:00,
2013-03-22 10:42:00,34.0,21.0,30.04,WNW,296,3.0,7.0,58,0.00,,,0.00,,2013-03-22 14:42:00,
2013-03-22 10:52:00,34.0,20.0,30.04,West,260,4.0,7.0,57,0.00,,,0.00,,2013-03-22 14:52:00,
2013-03-22 11:03:00,35.0,19.0,30.03,SW,226,4.0,6.0,52,0.00,,,0.00,,2013-03-22 15:03:00,
2013-03-22 11:12:00,35.0,19.0,30.03,SW,226,4.0,6.0,52,0.00,,,0.00,,2013-03-22 15:12:00,
2013-03-22 11:22:00,35.0,20.0,30.04,SSW,197,3.0,7.0,53,0.00,,,0.00,,2013-03-22 15:22:00,
2013-03-22 11:33:00,36.0,21.0,30.05,SSW,210,3.0,8.0,53,0.00,,,0.00,,2013-03-22 15:33:00,
2013-03-22 11:42:00,36.0,21.0,30.05,SSW,210,3.0,8.0,53,0.00,,,0.00,,2013-03-22 15:42:00,
2013-03-22 11:52:00,36.0,20.0,30.04,SW,223,2.0,7.0,51,0.00,,,0.00,,2013-03-22 15:52:00,
2013-03-22 12:03:00,36.0,19.0,30.04,SW,217,2.0,5.0,50,0.00,,,0.00,,2013-03-22 16:03:00,
2013-03-22 12:13:00,36.0,20.0,30.04,SW,217,3.0,4.0,51,0.00,,,0.00,,2013-03-22 16:13:00,
2013-03-22 12:23:00,36.0,20.0,30.04,SW,217,3.0,4.0,51,0.00,,,0.00,,2013-03-22 16:23:00,
2013-03-22 12:32:00,37.0,21.0,30.04,SW,217,1.0,5.0,53,0.00,,,0.00,,2013-03-22 16:32:00,
2013-03-22 12:42:00,38.0,22.0,30.04,SSW,196,4.0,8.0,51,0.00,,,0.00,,2013-03-22 16:42:00,
2013-03-22 12:52:00,38.0,22.0,30.04,SSW,196,4.0,8.0,51,0.00,,,0.00,,2013-03-22 16:52:00,
2013-03-22 13:03:00,39.0,21.0,30.03,SSW,208,1.0,7.0,48,0.00,,,0.00,,2013-03-22 17:03:00,
2013-03-22 13:12:00,40.0,21.0,30.03,SSW,208,2.0,5.0,47,0.00,,,0.00,,2013-03-22 17:12:00,
2013-03-22 13:23:00,40.0,21.0,30.03,SSW,208,2.0,5.0,47,0.00,,,0.00,,2013-03-22 17:23:00,
2013-03-22 13:32:00,40.0,23.0,30.02,SSW,208,1.0,6.0,50,0.00,,,0.00,,2013-03-22 17:32:00,
2013-03-22 13:42:00,40.0,23.0,30.02,SSW,208,1.0,6.0,50,0.00,,,0.00,,2013-03-22 17:42:00,
2013-03-22 13:52:00,40.0,21.0,30.01,SSW,208,2.0,4.0,47,0.00,,,0.00,,2013-03-22 17:52:00,
2013-03-22 14:02:00,41.0,23.0,30.01,SSW,203,2.0,6.0,48,0.00,,,0.00,,2013-03-22 18:02:00,
2013-03-22 14:12:00,41.0,23.0,30.01,SSW,203,2.0,6.0,48,0.00,,,0.00,,2013-03-22 18:12:00,
2013-03-22 14:22:00,41.0,23.0,30.01,SSW,201,3.0,4.0,49,0.00,,,0.00,,2013-03-22 18:22:00,
2013-03-22 14:33:00,42.0,23.0,30.00,SSW,213,0.0,6.0,47,0.00,,,0.00,,2013-03-22 18:33:00,
2013-03-22 14:42:00,42.0,23.0,30.00,SSW,213,0.0,6.0,47,0.00,,,0.00,,2013-03-22 18:42:00,
2013-03-22 14:52:00,42.0,23.0,29.99,West,266,2.0,9.0,46,0.00,,,0.00,,2013-03-22 18:52:00,
2013-03-22 15:02:00,42.0,23.0,29.99,SSW,200,4.0,10.0,47,0.00,,,0.00,,2013-03-22 19:02:00,
2013-03-22 15:12:00,42.0,22.0,29.98,SW,236,1.0,5.0,44,0.00,,,0.00,,2013-03-22 19:12:00,
2013-03-22 15:22:00,42.0,22.0,29.98,SW,236,1.0,5.0,44,0.00,,,0.00,,2013-03-22 19:22:00,
2013-03-22 15:32:00,43.0,22.0,29.98,SW,236,0.0,5.0,43,0.00,,,0.00,,2013-03-22 19:32:00,
2013-03-22 15:42:00,43.0,22.0,29.98,SW,236,0.0,5.0,43,0.00,,,0.00,,2013-03-22 19:42:00,
2013-03-22 15:52:00,43.0,23.0,29.98,WSW,243,2.0,6.0,45,0.00,,,0.00,,2013-03-22 19:52:00,
2013-03-22 16:02:00,43.0,23.0,29.97,West,267,0.0,5.0,44,0.00,,,0.00,,2013-03-22 20:02:00,
2013-03-22 16:12:00,43.0,22.0,29.96,West,265,2.0,5.0,43,0.00,,,0.00,,2013-03-22 20:12:00,
2013-03-22 16:22:00,43.0,22.0,29.96,West,265,2.0,5.0,43,0.00,,,0.00,,2013-03-22 20:22:00,
2013-03-22 16:32:00,44.0,23.0,29.96,WNW,282,3.0,7.0,44,0.00,,,0.00,,2013-03-22 20:32:00,
2013-03-22 16:43:00,44.0,23.0,29.96,WNW,282,3.0,7.0,44,0.00,,,0.00,,2013-03-22 20:43:00,
2013-03-22 16:52:00,44.0,22.0,29.96,West,263,2.0,7.0,42,0.00,,,0.00,,2013-03-22 20:52:00,
2013-03-22 17:03:00,44.0,23.0,29.95,West,261,1.0,5.0,43,0.00,,,0.00,,2013-03-22 21:03:00,
2013-03-22 17:12:00,45.0,23.0,29.95,SSW,205,1.0,10.0,42,0.00,,,0.00,,2013-03-22 21:12:00,
2013-03-22 17:22:00,45.0,23.0,29.95,SSW,205,1.0,10.0,42,0.00,,,0.00,,2013-03-22 21:22:00,
2013-03-22 17:33:00,45.0,23.0,29.95,SSW,204,2.0,7.0,41,0.00,,,0.00,,2013-03-22 21:33:00,
2013-03-22 17:43:00,45.0,23.0,29.95,SSW,204,2.0,7.0,41,0.00,,,0.00,,2013-03-22 21:43:00,
2013-03-22 17:53:00,45.0,22.0,29.95,SSW,204,2.0,5.0,40,0.00,,,0.00,,2013-03-22 21:53:00,
2013-03-22 18:03:00,45.0,23.0,29.95,SW,227,3.0,6.0,41,0.00,,,0.00,,2013-03-22 22:03:00,
2013-03-22 18:12:00,45.0,23.0,29.95,SW,227,3.0,6.0,41,0.00,,,0.00,,2013-03-22 22:12:00,
2013-03-22 18:23:00,44.0,21.0,29.95,SW,223,2.0,5.0,40,0.00,,,0.00,,2013-03-22 22:23:00,
2013-03-22 18:32:00,44.0,22.0,29.95,SW,227,2.0,5.0,41,0.00,,,0.00,,2013-03-22 22:32:00,
2013-03-22 18:42:00,44.0,22.0,29.95,SW,227,2.0,5.0,41,0.00,,,0.00,,2013-03-22 22:42:00,
2013-03-22 18:52:00,44.0,21.0,29.95,SW,218,1.0,7.0,39,0.00,,,0.00,,2013-03-22 22:52:00,
2013-03-22 19:02:00,43.0,20.0,29.96,SW,217,2.0,5.0,40,0.00,,,0.00,,2013-03-22 23:02:00,
2013-03-22 19:12:00,43.0,20.0,29.96,SW,217,2.0,5.0,40,0.00,,,0.00,,2013-03-22 23:12:00,
2013-03-22 19:22:00,43.0,21.0,29.96,SW,217,2.0,4.0,41,0.00,,,0.00,,2013-03-22 23:22:00,
2013-03-22 19:32:00,43.0,22.0,29.97,SW,217,1.0,2.0,42,0.00,,,0.00,,2013-03-22 23:32:00,
2013-03-22 19:42:00,43.0,22.0,29.97,SW,217,1.0,2.0,42,0.00,,,0.00,,2013-03-22 23:42:00,
2013-03-22 19:52:00,42.0,21.0,29.97,SW,217,1.0,5.0,42,0.00,,,0.00,,2013-03-22 23:52:00,
2013-03-22 20:02:00,41.0,20.0,29.97,SW,217,0.0,1.0,42,0.00,,,0.00,,2013-03-23 00:02:00,
2013-03-22 20:12:00,41.0,20.0,29.97,SW,217,0.0,1.0,42,0.00,,,0.00,,2013-03-23 00:12:00,
2013-03-22 20:23:00,41.0,20.0,29.97,SW,217,0.0,0.0,42,0.00,,,0.00,,2013-03-23 00:23:00,
2013-03-22 20:33:00,39.0,18.0,29.97,SW,217,0.0,0.0,43,0.00,,,0.00,,2013-03-23 00:33:00,
2013-03-22 20:42:00,39.0,18.0,29.98,SW,217,0.0,0.0,43,0.00,,,0.00,,2013-03-23 00:42:00,
2013-03-22 20:52:00,39.0,18.0,29.98,SW,217,0.0,0.0,43,0.00,,,0.00,,2013-03-23 00:52:00,
2013-03-22 21:03:00,38.0,19.0,29.98,SW,217,0.0,0.0,45,0.00,,,0.00,,2013-03-23 01:03:00,
2013-03-22 21:12:00,38.0,19.0,29.98,SW,217,0.0,0.0,45,0.00,,,0.00,,2013-03-23 01:12:00,
2013-03-22 21:22:00,37.0,18.0,29.98,SW,217,0.0,0.0,46,0.00,,,0.00,,2013-03-23 01:22:00,
2013-03-22 21:32:00,36.0,18.0,29.98,SW,217,0.0,0.0,47,0.00,,,0.00,,2013-03-23 01:32:00,
2013-03-22 21:42:00,36.0,18.0,29.98,SW,217,0.0,0.0,47,0.00,,,0.00,,2013-03-23 01:42:00,
2013-03-22 21:52:00,36.0,18.0,29.98,SW,217,0.0,0.0,48,0.00,,,0.00,,2013-03-23 01:52:00,
2013-03-22 22:02:00,36.0,19.0,29.98,SW,217,0.0,0.0,50,0.00,,,0.00,,2013-03-23 02:02:00,
2013-03-22 22:12:00,36.0,19.0,29.98,SW,217,0.0,0.0,50,0.00,,,0.00,,2013-03-23 02:12:00,
2013-03-22 22:22:00,35.0,18.0,29.98,SW,217,0.0,0.0,49,0.00,,,0.00,,2013-03-23 02:22:00,
2013-03-22 22:32:00,35.0,18.0,29.99,SW,217,0.0,1.0,50,0.00,,,0.00,,2013-03-23 02:32:00,
2013-03-22 22:42:00,35.0,18.0,29.99,SW,217,0.0,1.0,50,0.00,,,0.00,,2013-03-23 02:42:00,
2013-03-22 22:52:00,34.0,18.0,29.99,SW,217,0.0,0.0,51,0.00,,,0.00,,2013-03-23 02:52:00,
2013-03-22 23:02:00,34.0,20.0,30.00,SW,217,0.0,0.0,57,0.00,,,0.00,,2013-03-23 03:02:00,
2013-03-22 23:12:00,34.0,20.0,30.00,SW,217,0.0,0.0,57,0.00,,,0.00,,2013-03-23 03:12:00,
2013-03-22 23:22:00,34.0,21.0,29.99,SW,217,0.0,0.0,58,0.00,,,0.00,,2013-03-23 03:22:00,
2013-03-22 23:33:00,34.0,20.0,29.99,SW,217,0.0,1.0,56,0.00,,,0.00,,2013-03-23 03:33:00,
2013-03-22 23:43:00,34.0,20.0,29.99,SW,217,0.0,1.0,56,0.00,,,0.00,,2013-03-23 03:43:00,
2013-03-22 23:53:00,34.0,20.0,29.99,SW,217,1.0,2.0,56,0.00,,,0.00,,2013-03-23 03:53:00,